カタログに戻る

FENGYUN 1C DEB

運用中SSO
NORAD 30358·DEBRIS·🇨🇳 China

打ち上げ May 10, 1999 から Taiyuan Satellite Launch Center

Loading…

次のパス (今後24時間)

TLE

最新Source: Space-Track

元期: Sep 14, 2026, 11:08 UTC

1 30358U 99025ABV 26257.46408319  .00001958  00000-0  87051-3 0  9998
2 30358  98.5572  83.2170 0082316 118.4970 272.4195 14.22211163  8324

AllMySatでFENGYUN 1C DEBをリアルタイム追跡

Download on the App Store